Weather History for KHSE - December, 2013

Change the Weather History Date:

Sunday, December 8, 2013

  Actual Average Record
Temperature  
Mean Temperature 51 °F 51 °F  
Max Temperature 54 °F 58 °F 74 °F (1978)
Min Temperature 48 °F 45 °F 28 °F (1983)
Degree Days  
Heating Degree Days 14 14  
Month to date heating degree days 74 104  
Since 1 July heating degree days 393 422  
Cooling Degree Days 0 0  
Month to date cooling degree days 2 0  
Year to date cooling degree days 1992 1711  
Growing Degree Days 1 (Base 50)    
Moisture  
Dew Point 50 °F    
Average Humidity 93    
Maximum Humidity 100    
Minimum Humidity 86    
Precipitation  
Precipitation 0.23 in 0.13 in 2.16 in (1944)
Month to date precipitation 0.74 1.07  
Year to date precipitation 50.15 54.84  
Snow  
Snow 0.00 in - - ()
Month to date snowfall 0.0  
Since 1 July snowfall 0.0  
Snow Depth 0.00 in    
Sea Level Pressure  
Sea Level Pressure 30.29 in    
Wind  
Wind Speed 10 mph (NNE)    
Max Wind Speed 22 mph    
Max Gust Speed 32 mph    
Visibility 5 miles    
Events Fog , Rain    
T = Trace of Precipitation, MM = Missing Value Source: NWS Daily Summary

Daily Weather History Graph

Daily Weather History Graph

Search for Another Location

Airport or City:

Trip Planner

Search our weather history database for the weather conditions in past years. The results will help you decide how hot, cold, wet, or windy it might be!

Date:

Astronomy

Dec. 08, 2013 Rise Set
Actual Time 6:58 AM EST 4:50 PM EST
Civil Twilight 6:30 AM EST 5:18 PM EST
Nautical Twilight 5:59 AM EST 5:49 PM EST
Astronomical Twilight 5:28 AM EST 6:20 PM EST
Moon 11:28 AM EST (12/8) 11:25 PM EST (12/8)
Length of Visible Light 10h 47m
Length of Day
9h 51m
Waxing Crescent, 40% of the Moon is Illuminated
Dec 8
Waxing Crescent
Dec 9
First Quarter
Dec 17
Full
Dec 25
Last Quarter
Jan 1
New

Hourly Weather History & Observations

Time (EST) Temp. Dew Point Humidity Pressure Visibility Wind Dir Wind Speed Gust Speed Precip Events Conditions
12:51 AM 48.9 °F 44.1 °F 83% 30.37 in 10.0 mi NNE 12.7 mph 28.8 mph N/A   Overcast
1:51 AM 48.9 °F 44.1 °F 83% 30.36 in 10.0 mi NNE 15.0 mph 24.2 mph N/A   Overcast
2:21 AM 48.9 °F 44.1 °F 83% 30.36 in 10.0 mi NNE 13.8 mph 25.3 mph N/A   Overcast
2:51 AM 48.0 °F 45.0 °F 89% 30.36 in 4.0 mi NNE 11.5 mph 27.6 mph 0.00 in Rain Light Rain
3:02 AM 48.0 °F 46.0 °F 93% 30.35 in 5.0 mi NE 12.7 mph 25.3 mph 0.00 in   Overcast
3:12 AM 48.0 °F 46.0 °F 93% 30.35 in 6.0 mi NE 13.8 mph 25.3 mph 0.00 in   Overcast
3:51 AM 48.9 °F 46.0 °F 90% 30.36 in 9.0 mi NNE 15.0 mph 24.2 mph 0.00 in   Overcast
4:51 AM 48.0 °F 46.9 °F 96% 30.34 in 5.0 mi NNE 15.0 mph 25.3 mph 0.02 in Rain Light Rain
5:51 AM 48.9 °F 48.0 °F 97% 30.35 in 4.0 mi NNE 16.1 mph 25.3 mph 0.01 in Rain Light Rain
6:51 AM 48.9 °F 48.0 °F 97% 30.35 in 4.0 mi NE 16.1 mph 26.5 mph 0.01 in Rain Light Rain
7:51 AM 50.0 °F 48.0 °F 93% 30.34 in 5.0 mi NE 11.5 mph 27.6 mph 0.01 in   Overcast
8:51 AM 50.0 °F 48.9 °F 96% 30.35 in 3.0 mi NNE 12.7 mph 23.0 mph 0.00 in Rain Light Rain
9:00 AM 50.0 °F 48.9 °F 96% 30.34 in 2.5 mi NE 17.3 mph 25.3 mph 0.01 in Rain Light Rain
9:12 AM 51.1 °F 50.0 °F 96% 30.34 in 3.0 mi NE 13.8 mph 23.0 mph 0.01 in Rain Light Rain
9:30 AM 51.1 °F 50.0 °F 96% 30.34 in 2.5 mi NNE 10.4 mph 23.0 mph 0.02 in Rain Light Rain
9:51 AM 52.0 °F 51.1 °F 97% 30.35 in 2.0 mi NNE 10.4 mph 19.6 mph 0.05 in Rain Rain
9:54 AM 52.0 °F 51.1 °F 97% 30.34 in 1.8 mi NNE 13.8 mph 20.7 mph 0.01 in Rain Rain
10:06 AM 52.0 °F 51.1 °F 97% 30.35 in 2.5 mi NNE 10.4 mph 20.7 mph 0.04 in Rain Light Rain
10:29 AM 52.0 °F 51.1 °F 97% 30.34 in 4.0 mi NNE 12.7 mph 23.0 mph 0.07 in Rain Light Rain
10:51 AM 52.0 °F 51.1 °F 97% 30.32 in 2.5 mi NNE 11.5 mph 20.7 mph 0.08 in Rain Light Rain
11:09 AM 52.0 °F 51.1 °F 97% 30.32 in 2.0 mi NNE 11.5 mph 20.7 mph 0.01 in Rain Light Rain
11:28 AM 52.0 °F 52.0 °F 100% 30.30 in 3.0 mi NNE 9.2 mph 20.7 mph 0.01 in Rain Light Rain
11:51 AM 53.1 °F 52.0 °F 96% 30.31 in 3.0 mi NNE 10.4 mph 24.2 mph 0.01 in   Overcast
12:04 PM 52.0 °F 52.0 °F 100% 30.31 in 2.5 mi North 10.4 mph 19.6 mph 0.00 in Rain Light Rain
12:11 PM 52.0 °F 52.0 °F 100% 30.31 in 1.5 mi North 9.2 mph 19.6 mph 0.00 in Rain Light Rain
12:18 PM 52.0 °F 52.0 °F 100% 30.30 in 1.2 mi North 10.4 mph - 0.01 in Rain Light Rain
12:27 PM 52.0 °F 52.0 °F 100% 30.29 in 1.8 mi NNE 10.4 mph 20.7 mph 0.02 in Rain Light Rain
12:51 PM 53.1 °F 52.0 °F 96% 30.27 in 2.0 mi NNE 9.2 mph 19.6 mph 0.03 in Rain Light Rain
1:51 PM 53.1 °F 53.1 °F 100% 30.24 in 2.5 mi NNE 9.2 mph 18.4 mph 0.01 in   Overcast
2:08 PM 54.0 °F 53.1 °F 97% 30.23 in 4.0 mi NNE 10.4 mph 19.6 mph N/A   Overcast
2:23 PM 53.1 °F 53.1 °F 100% 30.23 in 2.5 mi NNE 11.5 mph 18.4 mph N/A   Overcast
2:35 PM 54.0 °F 53.1 °F 97% 30.23 in 4.0 mi NNE 11.5 mph 19.6 mph N/A   Overcast
2:51 PM 53.1 °F 52.0 °F 96% 30.24 in 3.0 mi North 10.4 mph 20.7 mph N/A   Overcast
3:31 PM 52.0 °F 52.0 °F 100% 30.25 in 2.0 mi North 9.2 mph 19.6 mph N/A   Overcast
3:47 PM 51.8 °F 51.8 °F 100% 30.26 in 4.0 mi Variable 6.9 mph 24.2 mph 0.00 in   Overcast
3:51 PM 51.1 °F 51.1 °F 100% 30.26 in 4.0 mi North 9.2 mph 21.9 mph 0.00 in   Overcast
4:04 PM 51.1 °F 51.1 °F 100% 30.25 in 10.0 mi North 12.7 mph 25.3 mph N/A   Overcast
4:51 PM 52.0 °F 52.0 °F 100% 30.25 in 10.0 mi North 6.9 mph 17.3 mph N/A   Overcast
5:51 PM 53.1 °F 52.0 °F 96% 30.25 in 10.0 mi Variable 5.8 mph - N/A   Overcast
5:55 PM 53.1 °F 52.0 °F 96% 30.24 in 10.0 mi NE 9.2 mph - N/A   Mostly Cloudy
6:51 PM 53.1 °F 53.1 °F 100% 30.27 in 10.0 mi Variable 6.9 mph - N/A   Overcast
7:04 PM 53.1 °F 52.0 °F 96% 30.26 in 10.0 mi Variable 5.8 mph - N/A   Overcast
7:27 PM 52.0 °F 52.0 °F 100% 30.25 in 9.0 mi Variable 5.8 mph - N/A   Overcast
7:44 PM 52.0 °F 51.1 °F 97% 30.26 in 8.0 mi NNW 8.1 mph - N/A   Overcast
7:51 PM 52.0 °F 51.1 °F 97% 30.26 in 8.0 mi NNW 8.1 mph - N/A   Overcast
8:40 PM 52.0 °F 52.0 °F 100% 30.26 in 7.0 mi North 6.9 mph - N/A   Overcast
8:51 PM 52.0 °F 51.1 °F 97% 30.26 in 8.0 mi Variable 5.8 mph - N/A   Overcast
9:05 PM 52.0 °F 52.0 °F 100% 30.26 in 8.0 mi Variable 4.6 mph - N/A   Overcast
9:40 PM 52.0 °F 51.1 °F 97% 30.26 in 9.0 mi NW 3.5 mph - N/A   Overcast
9:51 PM 52.0 °F 51.1 °F 97% 30.26 in 9.0 mi NW 4.6 mph - N/A   Overcast
10:34 PM 51.1 °F 50.0 °F 96% 30.26 in 6.0 mi WNW 6.9 mph - N/A   Overcast
10:44 PM 51.1 °F 50.0 °F 96% 30.26 in 4.0 mi WNW 4.6 mph - N/A   Overcast
10:51 PM 51.1 °F 51.1 °F 100% 30.25 in 1.8 mi NW 4.6 mph - N/A   Overcast
11:00 PM 51.1 °F 50.0 °F 96% 30.25 in 0.8 mi NW 3.5 mph - N/A   Overcast
11:51 PM 50.0 °F 50.0 °F 100% 30.25 in 0.5 mi NW 5.8 mph - N/A Fog Fog